weather.gov     
National Weather Service

Terminal Aerodrome Forecast
NWS Homepage
This page is being discontinued on March 12, 2014.
The same data is available at this site. Please update your bookmarks.
Thank you, and we apologize for the inconvenience.
Please send an email to SR-SRH.Webmaster@noaa.gov with any concerns.


Current Version
Previous Version:    01  02  03  04  05  06  07  08  09  10  11  12  13  14  15  16  17  18  19  20  21  
[Printable]
030
FTUS45 KBOU 201727
TAFBJC
TAF
KBJC 201727Z 2018/2118 14003KT P6SM FEW120
     FM201900 10008KT P6SM FEW120 SCT220
     FM210200 24005KT P6SM FEW200
     FM210500 28008KT P6SM FEW140 SCT200
     FM211300 VRB03KT P6SM FEW100 BKN140=


030
FTUS45 KBOU 201727
TAFBJC
TAF
KBJC 201727Z 2018/2118 14003KT P6SM FEW120
     FM201900 10008KT P6SM FEW120 SCT220
     FM210200 24005KT P6SM FEW200
     FM210500 28008KT P6SM FEW140 SCT200
     FM211300 VRB03KT P6SM FEW100 BKN140=




U.S. Dept. of Commerce
NOAA National Weather Service
1325 East West Highway
Silver Spring, MD 20910
E-mail: w-nws.webmaster@noaa.gov
Page last modified: May 16, 2007
NATIONAL WEATHER SERVICE: for Safety, for Work, for Fun - FOR LIFE